Location: Claflin County Park
(44.8478°N, 87.5507°W)
Time: 03:15:50
(UTC+00:00)

COSMO-SKYMED 1 - Pass Details

Date: 10 December 2025
Orbit: 578 x 580 km, 97.9° (Epoch: 12 January)

Event Time Altitude Azimuth Distance (km) Brightness Sun altitude
Exits shadow 00:06:47 53° 62° (ENE) 719 2.5 -20.0°
Maximum altitude 00:07:23 60° 101° (E) 670 2.4 -20.1°
Drops below altitude 10° 00:11:26 10° 182° (S) 1,886 5.2 -20.8°
Sets 00:13:35 0° 186° (S) 2,780 6.1 -21.2°
